• In Belgium
  • List of Countries
  • For 7 days
  • Water Temperature
  • Satellite Maps
  • Weather Map
  • Weather Widgets
  • user-avatar
    Login

    Hourly Weather Denisova

    Today, 24 October, Wednesday

    Time Temperature Precipitation Wind Pressure Humidity
    00:00 +3°C° 0 mm 4 mps 751 mmHg 85%
    01:00 +3°C° 0 mm 4 mps 750 mmHg 84%
    02:00 +3°C° 0 mm 4 mps 750 mmHg 83%
    03:00 +3°C° 0 mm 4 mps 750 mmHg 81%
    04:00 +3°C° 0 mm 4 mps 750 mmHg 80%
    05:00 +3°C° 0 mm 4 mps 750 mmHg 79%
    06:00 +1°C° 0 mm 5 mps 750 mmHg 78%
    07:00 +1°C° 0 mm 5 mps 750 mmHg 77%
    08:00 +2°C° 0 mm 5 mps 750 mmHg 75%
    09:00 +3°C° 0 mm 5 mps 750 mmHg 73%
    10:00 +5°C° 0 mm 5 mps 750 mmHg 71%
    11:00 +6°C° 0 mm 5 mps 749 mmHg 71%
    12:00 +7°C° 0 mm 5 mps 749 mmHg 71%
    13:00 +8°C° 0 mm 5 mps 749 mmHg 71%
    14:00 +8°C° 0 mm 5 mps 749 mmHg 73%
    15:00 +7°C° 0 mm 5 mps 749 mmHg 76%
    16:00 +7°C° 0 mm 5 mps 750 mmHg 78%
    17:00 +7°C° 0.1 mm 5 mps 750 mmHg 79%
    18:00 +6°C° 0.1 mm 5 mps 750 mmHg 81%
    19:00 +6°C° 0.1 mm 5 mps 750 mmHg 82%
    20:00 +6°C° 0 mm 5 mps 750 mmHg 80%
    21:00 +5°C° 0 mm 4 mps 750 mmHg 78%
    22:00 +4°C° 0 mm 4 mps 750 mmHg 76%
    23:00 +4°C° 0 mm 4 mps 750 mmHg 75%

    Tomorrow, 25 October, Thursday

    Time Temperature Precipitation Wind Pressure Humidity
    00:00 +4°C° 0 mm 4 mps 750 mmHg 73%
    01:00 +3°C° 0 mm 4 mps 750 mmHg 72%
    02:00 +3°C° 0 mm 3 mps 750 mmHg 73%
    03:00 +2°C° 0 mm 3 mps 751 mmHg 74%
    04:00 +2°C° 0 mm 3 mps 751 mmHg 76%
    05:00 +2°C° 0 mm 3 mps 751 mmHg 77%
    06:00 +2°C° 0 mm 3 mps 751 mmHg 79%
    07:00 +2°C° 0 mm 3 mps 751 mmHg 80%
    08:00 +3°C° 0 mm 3 mps 751 mmHg 78%
    09:00 +4°C° 0 mm 4 mps 751 mmHg 76%
    10:00 +6°C° 0 mm 4 mps 751 mmHg 74%
    11:00 +7°C° 0 mm 4 mps 751 mmHg 72%
    12:00 +8°C° 0 mm 4 mps 751 mmHg 71%
    13:00 +10°C° 0 mm 4 mps 751 mmHg 69%
    14:00 +8°C° 0 mm 4 mps 751 mmHg 72%
    15:00 +8°C° 0 mm 4 mps 751 mmHg 74%
    16:00 +7°C° 0 mm 4 mps 751 mmHg 77%
    17:00 +7°C° 0 mm 4 mps 751 mmHg 77%
    18:00 +7°C° 0 mm 4 mps 751 mmHg 77%
    19:00 +6°C° 0 mm 5 mps 751 mmHg 77%
    20:00 +6°C° 0 mm 5 mps 751 mmHg 76%
    21:00 +6°C° 0 mm 5 mps 751 mmHg 75%
    22:00 +6°C° 0 mm 5 mps 751 mmHg 74%
    23:00 +6°C° 0 mm 5 mps 751 mmHg 73%

    Day after tomorrow, 26 October, Friday

    Time Temperature Precipitation Wind Pressure Humidity
    00:00 +6°C° 0 mm 5 mps 750 mmHg 71%
    01:00 +6°C° 0 mm 5 mps 750 mmHg 70%
    02:00 +6°C° 0 mm 5 mps 750 mmHg 69%
    03:00 +6°C° 0 mm 5 mps 750 mmHg 68%
    04:00 +6°C° 0 mm 5 mps 750 mmHg 67%
    05:00 +6°C° 0 mm 5 mps 750 mmHg 66%
    06:00 +6°C° 0 mm 5 mps 749 mmHg 65%
    07:00 +6°C° 0 mm 5 mps 749 mmHg 64%
    08:00 +7°C° 0 mm 6 mps 749 mmHg 59%
    09:00 +8°C° 0 mm 6 mps 748 mmHg 55%
    10:00 +10°C° 0 mm 6 mps 748 mmHg 50%
    11:00 +11°C° 0 mm 6 mps 747 mmHg 48%
    12:00 +12°C° 0 mm 7 mps 747 mmHg 46%
    13:00 +14°C° 0 mm 7 mps 747 mmHg 43%
    14:00 +12°C° 0 mm 7 mps 746 mmHg 45%
    15:00 +11°C° 0 mm 6 mps 746 mmHg 47%
    16:00 +10°C° 0 mm 6 mps 745 mmHg 49%
    17:00 +10°C° 0 mm 6 mps 745 mmHg 51%
    18:00 +10°C° 0 mm 6 mps 745 mmHg 52%
    19:00 +9°C° 0 mm 5 mps 744 mmHg 54%
    20:00 +9°C° 0 mm 5 mps 744 mmHg 54%
    21:00 +9°C° 0 mm 5 mps 743 mmHg 55%
    22:00 +10°C° 0 mm 5 mps 743 mmHg 56%
    23:00 +9°C° 0.3 mm 5 mps 743 mmHg 60%

    27 October, Saturday

    Time Temperature Precipitation Wind Pressure Humidity
    00:00 +9°C° 0.3 mm 5 mps 743 mmHg 64%
    01:00 +10°C° 0.3 mm 4 mps 742 mmHg 68%
    02:00 +8°C° 1.4 mm 4 mps 742 mmHg 76%
    03:00 +8°C° 1.4 mm 4 mps 743 mmHg 84%
    04:00 +8°C° 1.4 mm 3 mps 743 mmHg 91%
    05:00 +8°C° 0.8 mm 3 mps 743 mmHg 92%
    06:00 +8°C° 0.8 mm 3 mps 743 mmHg 93%
    07:00 +7°C° 0.8 mm 2 mps 743 mmHg 93%
    08:00 +8°C° 0 mm 3 mps 744 mmHg 87%
    09:00 +8°C° 0 mm 3 mps 744 mmHg 80%
    10:00 +7°C° 0 mm 4 mps 744 mmHg 74%
    11:00 +7°C° 0 mm 4 mps 745 mmHg 71%
    12:00 +7°C° 0 mm 4 mps 745 mmHg 68%
    13:00 +8°C° 0 mm 3 mps 745 mmHg 64%
    14:00 +7°C° 0 mm 3 mps 746 mmHg 67%
    15:00 +5°C° 0 mm 3 mps 746 mmHg 70%
    16:00 +6°C° 0 mm 2 mps 746 mmHg 73%
    17:00 +5°C° 0 mm 2 mps 747 mmHg 75%
    18:00 +5°C° 0 mm 2 mps 747 mmHg 78%
    19:00 +4°C° 0 mm 2 mps 747 mmHg 80%
    20:00 +4°C° 0 mm 2 mps 747 mmHg 81%
    21:00 +4°C° 0 mm 2 mps 747 mmHg 81%
    22:00 +3°C° 0 mm 2 mps 747 mmHg 81%
    23:00 +3°C° 0 mm 2 mps 747 mmHg 81%

    28 October, Sunday

    Time Temperature Precipitation Wind Pressure Humidity
    00:00 +3°C° 0 mm 2 mps 747 mmHg 81%
    01:00 +2°C° 0 mm 2 mps 747 mmHg 81%
    02:00 +2°C° 0 mm 2 mps 748 mmHg 82%
    03:00 +2°C° 0 mm 2 mps 748 mmHg 82%
    04:00 +1°C° 0 mm 3 mps 748 mmHg 83%
    05:00 0°C° 0 mm 3 mps 748 mmHg 84%
    06:00 0°C° 0 mm 3 mps 748 mmHg 85%
    07:00 -1°C° 0 mm 3 mps 748 mmHg 86%
    08:00 0°C° 0 mm 3 mps 748 mmHg 82%
    09:00 0°C° 0 mm 4 mps 748 mmHg 77%
    10:00 +1°C° 0 mm 4 mps 748 mmHg 72%
    11:00 +2°C° 0 mm 5 mps 748 mmHg 69%
    12:00 +3°C° 0 mm 5 mps 748 mmHg 65%
    13:00 +3°C° 0 mm 5 mps 747 mmHg 61%
    14:00 +3°C° 0 mm 5 mps 747 mmHg 64%
    15:00 +3°C° 0 mm 4 mps 746 mmHg 67%
    16:00 +3°C° 0 mm 4 mps 746 mmHg 70%
    17:00 +3°C° 0.4 mm 4 mps 745 mmHg 73%
    18:00 +2°C° 0.4 mm 5 mps 744 mmHg 76%
    19:00 +2°C° 0.4 mm 5 mps 743 mmHg 79%
    20:00 +2°C° 0.6 mm 5 mps 742 mmHg 81%
    21:00 +2°C° 0.6 mm 5 mps 741 mmHg 82%
    22:00 +3°C° 0.6 mm 5 mps 741 mmHg 84%
    23:00 +2°C° 0.3 mm 5 mps 741 mmHg 85%

    29 October, Monday

    Time Temperature Precipitation Wind Pressure Humidity
    00:00 +2°C° 0.3 mm 5 mps 741 mmHg 86%
    01:00 +3°C° 0.3 mm 4 mps 740 mmHg 86%
    02:00 +2°C° 0.5 mm 5 mps 741 mmHg 86%
    03:00 +1°C° 0.5 mm 5 mps 741 mmHg 85%
    04:00 +1°C° 0.5 mm 5 mps 741 mmHg 85%
    05:00 +1°C° 0 mm 5 mps 741 mmHg 86%
    06:00 +1°C° 0 mm 5 mps 742 mmHg 86%
    07:00 0°C° 0 mm 5 mps 742 mmHg 87%
    08:00 +1°C° 0.1 mm 5 mps 743 mmHg 85%
    09:00 +1°C° 0.1 mm 6 mps 744 mmHg 83%
    10:00 +2°C° 0.1 mm 6 mps 744 mmHg 81%
    11:00 +2°C° 0.1 mm 6 mps 745 mmHg 79%
    12:00 +2°C° 0.1 mm 6 mps 746 mmHg 77%
    13:00 +2°C° 0.1 mm 6 mps 748 mmHg 76%
    14:00 +1°C° 0.1 mm 6 mps 748 mmHg 76%
    15:00 +1°C° 0.1 mm 6 mps 749 mmHg 75%
    16:00 +1°C° 0.1 mm 6 mps 750 mmHg 75%
    17:00 0°C° 0 mm 5 mps 751 mmHg 76%
    18:00 0°C° 0 mm 5 mps 752 mmHg 77%
    19:00 0°C° 0 mm 4 mps 752 mmHg 77%
    20:00 -1°C° 0 mm 4 mps 753 mmHg 79%
    21:00 -1°C° 0 mm 4 mps 753 mmHg 80%
    22:00 -1°C° 0 mm 4 mps 754 mmHg 82%
    23:00 -1°C° 0 mm 4 mps 754 mmHg 82%

    30 October, Tuesday

    Time Temperature Precipitation Wind Pressure Humidity
    00:00 -1°C° 0 mm 4 mps 755 mmHg 81%
    01:00 -2°C° 0 mm 4 mps 756 mmHg 81%
    02:00 -2°C° 0 mm 4 mps 756 mmHg 80%
    03:00 -3°C° 0 mm 4 mps 757 mmHg 80%
    04:00 -4°C° 0 mm 4 mps 758 mmHg 79%
    05:00 -4°C° 0 mm 4 mps 758 mmHg 79%
    06:00 -4°C° 0 mm 4 mps 759 mmHg 78%
    07:00 -4°C° 0 mm 4 mps 759 mmHg 78%
    08:00 -4°C° 0 mm 4 mps 760 mmHg 73%
    09:00 -4°C° 0 mm 5 mps 760 mmHg 68%
    10:00 -2°C° 0 mm 5 mps 761 mmHg 64%
    11:00 -2°C° 0 mm 5 mps 761 mmHg 61%
    12:00 -2°C° 0 mm 4 mps 761 mmHg 59%
    13:00 -1°C° 0 mm 4 mps 762 mmHg 57%
    14:00 -1°C° 0 mm 3 mps 762 mmHg 60%
    15:00 -2°C° 0 mm 3 mps 762 mmHg 64%
    16:00 -2°C° 0 mm 2 mps 762 mmHg 67%
    17:00 -2°C° 0 mm 2 mps 762 mmHg 68%
    18:00 -1°C° 0 mm 1 mps 762 mmHg 70%
    19:00 -1°C° 0 mm 1 mps 762 mmHg 71%
    20:00 -1°C° 0 mm 1 mps 762 mmHg 71%
    21:00 -2°C° 0 mm 0 mps 762 mmHg 71%
    22:00 -2°C° 0 mm 0 mps 762 mmHg 71%
    23:00 -2°C° 0 mm 0 mps 762 mmHg 71%
    Show more